Terminal Aerodrome Forecast
Issued by NWS Mobile, AL

Home | Current Version | Previous Version | Text Only | Print | Product List | Glossary On
Versions: 1 2 3 4 5 6 7 8 9 10 11 12 13 14 15 16 17 18 19 20 21 22 23 24 25 26 27 28 29 30 31 32
000
FTUS44 KMOB 161144
TAFPNS
TAF
KPNS 161144Z 1612/1712 08005KT P6SM OVC080
     FM161800 15010KT P6SM VCSH OVC050
     FM170300 14006KT 4SM BR VCSH OVC025
     FM170900 15005KT 1SM BR OVC015=

USA.gov is the U.S. government's official web portal to all federal, state and local government web resources and services.